FENGYUN 1C DEB

Satellite information

Favourite Embed

Satellite Type and Status

DEBRISIN ORBIT

Key statistics

Satellite FENGYUN 1C DEB at a glance.

Uptime

9715

Days in orbit

Revolutions

≈ 14.4

Per day

Orbit

SSO

Sun Synchronous Orbit

Inclination

99.3

Latest

Satellite identification and parameters

Extended collection of information and parameters for FENGYUN 1C DEB.

Object identification

Identified? True

Debris? True

Object name: FENGYUN 1C DEB

International designator: 1999-025BZD

Object number (NORAD): 31562

Object ID (CCSDS): 31562

Country: PEOPLES REPUBLIC OF CHINA (PRC)

Current information (Y/N): Y

RCS size: SMALL

Orbital parameters

Period: 99.858 minutes

Inclination: 99.2575 deg

SMA: 7129.86 km

Apoapsis: 792.454 km

Periapsis: 710.997 km

RAAN: 137.1433 deg

Eccentricy: 0.00571239

Argument of periapsis: 286.3713 deg

Mean anomaly: 73.1198 deg

Mean motion: 14.4205302 rev/day

Mean motion (dot): 0.00004928 rev/day2

B* drag term: 0.0014861472 1/REarth

Two-line elements (TLE)

Creation date: Dec. 12, 2025, 3:16 a.m.

Reference frame: TEME

Reference center: EARTH

Epoch: Dec. 11, 2025, 4:29 p.m. UTC

TLE line 0: 0 FENGYUN 1C DEB

TLE line 1: 1 31562U 99025BZD 25345.68681479 .00004928 00000-0 14861-2 0 9995

TLE line 2: 2 31562 99.2575 137.1433 0057124 286.3713 73.1198 14.42053020969753

Live tracking on map

Real-time ground track for satellite FENGYUN 1C DEB.

In-orbit conjunctions

A list of the most updated potential collisions computed for object FENGYUN 1C DEB.

Target Orbit TCA Probability of collision Miss distance Type
CZ-6A DEB LEO 2025-11-21 10:11:11 0.0001766043 140.0 (m) DEBRIS
CZ-4B R/B LEO 2025-09-05 08:10:19 0.0002688267 968.0 (m) ROCKET BODY
IRIDIUM 33 DEB LEO 2025-03-07 08:38:06 0.0001844425 66.0 (m) DEBRIS
COSMOS 1680 LEO 2024-07-12 20:15:43 0.0002837028 473.0 (m) PAYLOAD

Associated space launch

Chinese polar orbiting meteorological satellite

FENGYUN 1C DEB was lifted into orbit during the mission ‘Long March 4B | Feng Yun 1C’, on board a Long March 4B space rocket.

The launch took place on May 10, 1999, 1:33 a.m. from Launch Complex 7.

For more information about the launch, click the button.

Launch to space Long March 4B | Feng Yun 1C
Long March 4B | Feng Yun 1C

Agency: N/A

Status: Launch Successful

Launch date: May 10, 1999, 1:33 a.m. UTC

Rocket: Long March 4B

Launch pad: Launch Complex 7

Location: Taiyuan Satellite Launch Center, People's Republic of China

...

Latest news about this satellite

There are no fresh news available about this satellite. Check back as we update our databases every day.


Newsletter sign-up

Weekly statistics, charts and insights to help you stay on top of the space industry.